Ballalae Airport


Codes: AGGE/BAS
Name: Ballalae Airport
City: Ballalae
Country: Solomon Islands
Elevation: 5 ft.
Wikipedia:

Photos at Ballalae Airport


   Photos courtesy of SpottingLog. You can add your own sightings and photos by signing up for a free trial today.



No photos found.

Weather at Ballalae Airport


Time (UTC)DescriptionTempratureWindCloud coverageVisibilityPressureHumidity
19-Apr-2024 03:00Few Clouds29°C0 mph, NE20%10000m1007hPa75%
19-Apr-2024 06:00Few Clouds29°C2 mph, NE18%10000m1007hPa74%
19-Apr-2024 09:00Light Rain29°C4 mph, W30%10000m1008hPa75%
19-Apr-2024 12:00Scattered Clouds29°C2 mph, SW27%10000m1010hPa75%
19-Apr-2024 15:00Overcast Clouds28°C2 mph, N93%10000m1009hPa78%
19-Apr-2024 18:00Broken Clouds28°C7 mph, NE83%10000m1009hPa79%
19-Apr-2024 21:00Broken Clouds28°C9 mph, NE62%10000m1010hPa79%
20-Apr-2024 00:00Broken Clouds29°C11 mph, NE58%10000m1010hPa73%
20-Apr-2024 03:00Scattered Clouds30°C13 mph, NE42%10000m1008hPa73%
20-Apr-2024 06:00Light Rain30°C11 mph, NE33%10000m1007hPa73%
20-Apr-2024 09:00Light Rain29°C9 mph, N36%10000m1009hPa75%
20-Apr-2024 12:00Light Rain29°C7 mph, N59%10000m1010hPa76%
20-Apr-2024 15:00Light Rain28°C7 mph, N28%10000m1009hPa78%
20-Apr-2024 18:00Scattered Clouds28°C4 mph, N26%10000m1009hPa78%
20-Apr-2024 21:00Broken Clouds28°C4 mph, N77%10000m1011hPa78%
21-Apr-2024 00:00Broken Clouds29°C4 mph, NE74%10000m1010hPa75%
21-Apr-2024 03:00Broken Clouds29°C9 mph, E60%10000m1008hPa73%
21-Apr-2024 06:00Light Rain30°C9 mph, NE47%10000m1007hPa72%
21-Apr-2024 09:00Light Rain29°C11 mph, NE62%10000m1009hPa74%
21-Apr-2024 12:00Light Rain29°C9 mph, NE62%10000m1010hPa74%
21-Apr-2024 15:00Overcast Clouds29°C9 mph, NE88%10000m1008hPa76%
21-Apr-2024 18:00Broken Clouds29°C7 mph, NE82%10000m1008hPa76%
21-Apr-2024 21:00Broken Clouds29°C7 mph, NE70%10000m1010hPa75%
22-Apr-2024 00:00Broken Clouds29°C9 mph, E57%10000m1010hPa73%
22-Apr-2024 03:00Light Rain29°C9 mph, E75%10000m1007hPa74%
22-Apr-2024 06:00Light Rain29°C11 mph, NE81%10000m1007hPa74%
22-Apr-2024 09:00Light Rain29°C13 mph, NE86%10000m1009hPa76%
22-Apr-2024 12:00Light Rain29°C9 mph, NE76%10000m1010hPa75%
22-Apr-2024 15:00Broken Clouds29°C7 mph, NE53%10000m1008hPa75%
22-Apr-2024 18:00Scattered Clouds29°C9 mph, NE38%10000m1008hPa75%
22-Apr-2024 21:00Scattered Clouds29°C9 mph, NE35%10000m1010hPa74%
23-Apr-2024 00:00Scattered Clouds29°C9 mph, NE28%10000m1010hPa73%
23-Apr-2024 03:00Broken Clouds29°C9 mph, E68%10000m1008hPa73%
23-Apr-2024 06:00Broken Clouds29°C9 mph, E57%10000m1007hPa72%
23-Apr-2024 09:00Moderate Rain29°C7 mph, E94%10000m1009hPa78%
23-Apr-2024 12:00Light Rain29°C9 mph, E96%7243m1010hPa76%
23-Apr-2024 15:00Light Rain29°C4 mph, NE100%10000m1008hPa76%
23-Apr-2024 18:00Light Rain28°C2 mph, E93%10000m1008hPa79%
23-Apr-2024 21:00Light Rain28°C9 mph, SE92%6790m1010hPa79%
24-Apr-2024 00:00Moderate Rain29°C11 mph, SE96%10000m1010hPa77%